Lid_Strength_Index
6 7 6 9 9 8 10 11 11 10 9 7 7 7 7 7 6 6 5 4 4 3 3 3 2 2 2 1 1 1 1 0
7 6 7 7 8 9 9 14 14 11 11 10 8 8 7 7 7 6 5 5 4 3 3 2 2 1 1 1 1 1 0 1
7 8 8 9 9 9 8 10 12 12 10 7 8 7 7 7 6 6 5 5 4 3 3 2 2 2 1 1 1 2 1 1
8 7 7 7 8 8 10 12 11 10 10 6 6 7 6 6 6 5 4 5 4 3 3 3 2 2 2 2 2 1 1 1
9 8 7 8 9 9 8 9 12 11 9 7 7 7 6 6 6 5 4 4 4 4 3 3 3 3 2 2 1 1 1 1
11 9 8 9 9 9 8 10 11 10 9 7 7 7 7 6 5 5 5 5 4 4 3 3 3 2 2 2 1 1 1 1
8 9 8 8 9 9 9 9 9 9 9 7 7 7 7 6 5 5 5 5 4 4 4 3 3 2 2 2 1 1 1 1
9 8 8 9 8 8 8 8 8 8 9 7 7 6 6 6 6 6 5 5 4 4 4 3 3 3 2 2 1 1 1 1
11 9 9 11 9 8 8 7 8 9 8 7 8 7 6 6 6 5 5 4 4 4 3 3 3 2 2 2 1 1 1 1
12 10 14 9 8 7 8 8 7 8 8 7 7 6 6 5 5 5 5 5 4 3 3 2 2 2 1 1 1 1 2 2
12 11 10 9 9 9 9 8 7 8 7 7 6 5 6 5 4 5 4 4 4 3 2 2 2 1 1 1 1 2 2 2
11 12 13 9 7 6 6 10 7 7 7 7 6 9 7 5 4 4 4 4 4 2 2 2 2 1 2 2 2 2 2 2
11 11 10 7 6 5 10 9 5 6 6 6 7 6 5 4 4 4 4 5 4 4 4 3 2 1 2 2 2 1 2 2
11 12 12 7 7 9 8 6 6 6 6 6 6 5 5 5 4 4 4 4 4 5 5 4 2 1 3 4 3 2 2 1
9 9 8 7 7 5 5 6 6 5 5 5 5 6 5 5 4 4 4 3 3 3 4 4 4 4 5 5 3 3 3 3
9 9 8 7 6 5 5 5 5 4 4 4 5 5 5 4 4 4 3 3 3 3 3 3 3 3 4 4 4 4 4 5
9 8 7 6 6 5 5 4 4 4 4 4 4 5 4 4 4 4 3 3 2 3 3 2 2 3 4 4 4 5 6 7
10 7 7 7 5 4 5 5 4 4 4 4 4 4 4 4 3 3 3 2 2 2 2 3 3 3 3 3 3 4 4 5
7 5 6 5 4 4 4 4 4 4 4 4 3 3 3 3 3 3 3 2 2 2 2 2 2 2 3 2 3 3 3 4